WA6MEM Weather Reports


time (UTC)temp
C
wind
direction
speed
KPH
gust
KPH
rain 1hr
cm
rain 24hr
cm
rain mn
cm
humidity
%
barometer
mb
20260506000548 13 181 8.0 0.0 0.00 0.00 0.00 80 1013.0
20260506000050 13 190 8.0 0.0 0.00 0.00 0.00 78 1013.0
20260505235547 14 175 8.0 0.0 0.00 0.00 0.00 78 1013.1
20260505235047 14 219 6.4 0.0 0.00 0.00 0.00 79 1013.1
20260505234546 14 207 8.0 0.0 0.00 0.00 0.00 79 1013.1
20260505234045 14 210 8.0 0.0 0.00 0.00 0.00 78 1013.0
20260505233545 15 186 8.0 0.0 0.00 0.00 0.00 76 1013.0
20260505233045 15 190 9.7 0.0 0.00 0.00 0.00 76 1013.0
20260505232545 15 186 8.0 0.0 0.00 0.00 0.00 75 1012.9
20260505232049 15 187 6.4 0.0 0.00 0.00 0.00 76 1012.9
20260505231546 15 182 8.0 0.0 0.00 0.00 0.00 77 1012.9
20260505231049 15 124 8.0 0.0 0.00 0.00 0.00 77 1012.9
20260505230545 15 180 6.4 0.0 0.00 0.00 0.00 76 1012.9
20260505230056 15 213 6.4 0.0 0.00 0.00 0.00 75 1012.9
20260505225546 15 237 8.0 0.0 0.00 0.00 0.00 77 1013.0
20260505225044 15 204 8.0 0.0 0.00 0.00 0.00 74 1013.0
20260505224547 15 258 8.0 0.0 0.00 0.00 0.00 72 1013.0
20260505224046 15 169 8.0 0.0 0.00 0.00 0.00 72 1013.2
20260505223543 15 229 8.0 0.0 0.00 0.00 0.00 72 1013.2
20260505223055 15 173 9.7 0.0 0.00 0.00 0.00 71 1013.2
20260505222543 15 242 8.0 0.0 0.00 0.00 0.00 68 1013.3
20260505222047 15 237 8.0 0.0 0.00 0.00 0.00 67 1013.3
20260505221544 15 205 8.0 0.0 0.00 0.00 0.00 67 1013.3
20260505221047 15 181 8.0 0.0 0.00 0.00 0.00 66 1013.4
20260505220542 15 181 8.0 0.0 0.00 0.00 0.00 67 1013.4
20260505220045 15 157 8.0 0.0 0.00 0.00 0.00 66 1013.4
20260505215542 15 211 8.0 0.0 0.00 0.00 0.00 67 1013.4
20260505215042 16 153 6.4 0.0 0.00 0.00 0.00 69 1013.4
20260505214542 16 119 6.4 0.0 0.00 0.00 0.00 70 1013.4
20260505214042 15 173 8.0 0.0 0.00 0.00 0.00 68 1013.5
20260505213545 16 185 8.0 0.0 0.00 0.00 0.00 68 1013.5
20260505213053 16 188 6.4 0.0 0.00 0.00 0.00 67 1013.5
20260505212541 16 212 4.8 0.0 0.00 0.00 0.00 70 1013.6
20260505212041 15 223 6.4 0.0 0.00 0.00 0.00 69 1013.6
20260505211541 15 208 8.0 0.0 0.00 0.00 0.00 70 1013.6
20260505211041 15 155 8.0 0.0 0.00 0.00 0.00 69 1013.5
20260505210540 15 191 8.0 0.0 0.00 0.00 0.00 66 1013.5
20260505210040 16 163 6.4 0.0 0.00 0.00 0.00 67 1013.5
20260505205540 15 200 6.4 0.0 0.00 0.00 0.00 66 1013.5
20260505205039 15 173 6.4 0.0 0.00 0.00 0.00 67 1013.5
20260505204540 15 160 8.0 0.0 0.00 0.00 0.00 67 1013.5
20260505204039 15 186 8.0 0.0 0.00 0.00 0.00 70 1013.5
20260505203539 15 153 8.0 0.0 0.00 0.00 0.00 67 1013.5
20260505203046 15 202 6.4 0.0 0.00 0.00 0.00 68 1013.5
20260505202539 15 192 6.4 0.0 0.00 0.00 0.00 67 1013.5
20260505202039 15 241 8.0 0.0 0.00 0.00 0.00 69 1013.5
20260505201541 15 163 8.0 0.0 0.00 0.00 0.00 67 1013.5
20260505201039 15 207 6.4 0.0 0.00 0.00 0.00 68 1013.5
20260505200539 15 210 8.0 0.0 0.00 0.00 0.00 68 1013.5
20260505200037 15 163 8.0 0.0 0.00 0.00 0.00 65 1013.5
20260505195540 15 226 8.0 0.0 0.00 0.00 0.00 68 1013.5
20260505195038 15 231 6.4 0.0 0.00 0.00 0.00 67 1013.5
20260505194536 15 259 6.4 0.0 0.00 0.00 0.00 69 1013.5
20260505194036 15 193 6.4 0.0 0.00 0.00 0.00 68 1013.7
20260505193536 15 360 6.4 0.0 0.00 0.00 0.00 69 1013.7
20260505193034 15 233 8.0 0.0 0.00 0.00 0.00 69 1013.7
20260505192534 15 184 8.0 0.0 0.00 0.00 0.00 72 1013.8
20260505192033 15 196 6.4 0.0 0.00 0.00 0.00 72 1013.8
20260505191533 15 187 6.4 0.0 0.00 0.00 0.00 74 1013.8
20260505191033 15 198 8.0 0.0 0.00 0.00 0.00 75 1013.9
20260505190534 15 213 8.0 0.0 0.00 0.00 0.00 76 1013.9
20260505190030 15 144 8.0 0.0 0.00 0.00 0.00 75 1013.9
20260505185531 15 208 8.0 0.0 0.00 0.00 0.00 75 1013.9
20260505185031 15 182 8.0 0.0 0.00 0.00 0.00 75 1013.9
20260505184530 15 163 9.7 0.0 0.00 0.00 0.00 73 1013.9
20260505184029 14 261 8.0 0.0 0.00 0.00 0.00 70 1013.9
20260505183528 14 201 8.0 0.0 0.00 0.00 0.00 76 1013.9
20260505183028 14 211 8.0 0.0 0.00 0.00 0.00 75 1013.9
20260505182527 14 205 6.4 0.0 0.00 0.00 0.00 76 1013.7
20260505182033 14 266 6.4 0.0 0.00 0.00 0.00 73 1013.7
20260505181527 14 217 6.4 0.0 0.00 0.00 0.00 72 1013.7
20260505181027 14 171 6.4 0.0 0.00 0.00 0.00 74 1013.7
20260505180525 14 281 6.4 0.0 0.00 0.00 0.00 74 1013.7
20260505180024 13 224 6.4 0.0 0.00 0.00 0.00 78 1013.7
20260505175523 13 206 6.4 0.0 0.00 0.00 0.00 79 1013.6
20260505175023 13 158 6.4 0.0 0.00 0.00 0.00 80 1013.6
20260505174522 13 177 4.8 0.0 0.00 0.00 0.00 80 1013.6
20260505174022 13 263 4.8 0.0 0.00 0.00 0.00 81 1013.5
20260505173520 13 148 4.8 0.0 0.00 0.00 0.00 80 1013.5
20260505173036 13 292 4.8 0.0 0.00 0.00 0.00 82 1013.5
20260505172520 13 244 4.8 0.0 0.00 0.00 0.00 81 1013.3
20260505172020 13 184 4.8 0.0 0.00 0.00 0.00 80 1013.3
20260505171520 13 190 3.2 0.0 0.00 0.00 0.00 81 1013.3
20260505171018 13 176 4.8 0.0 0.00 0.00 0.00 84 1013.3
20260505170517 13 270 6.4 0.0 0.00 0.00 0.00 84 1013.3
20260505170023 12 303 6.4 0.0 0.00 0.00 0.00 86 1013.3
20260505165516 12 233 6.4 0.0 0.00 0.00 0.00 86 1013.1
20260505165016 13 306 4.8 0.0 0.00 0.00 0.00 86 1013.1
20260505164535 12 275 4.8 0.0 0.00 0.00 0.00 85 1013.1
20260505164015 12 248 4.8 0.0 0.00 0.00 0.00 87 1013.1
20260505163514 12 258 6.4 0.0 0.00 0.00 0.00 85 1013.1
20260505163015 12 217 6.4 0.0 0.00 0.00 0.00 85 1013.1
20260505162514 12 281 4.8 0.0 0.00 0.00 0.00 84 1012.7
20260505162014 12 213 4.8 0.0 0.00 0.00 0.00 84 1012.7
20260505161513 12 184 4.8 0.0 0.00 0.00 0.00 86 1012.7
20260505161014 12 207 4.8 0.0 0.00 0.00 0.00 87 1012.6
20260505160511 12 252 3.2 0.0 0.00 0.00 0.00 88 1012.6
20260505153010 11 284 6.4 0.0 0.00 0.00 0.00 90 1012.7
20260505152505 11 274 6.4 0.0 0.00 0.00 0.00 91 1012.7
20260505152007 11 254 8.0 0.0 0.00 0.00 0.00 91 1012.7
20260505151504 11 243 8.0 0.0 0.00 0.00 0.00 91 1012.7
20260505151004 11 279 6.4 0.0 0.00 0.00 0.00 91 1012.6
20260505150504 11 225 4.8 0.0 0.00 0.00 0.00 92 1012.6
20260505140502 10 309 4.8 0.0 0.00 0.00 0.00 93 1012.2
20260505124558 10 252 4.8 0.0 0.00 0.00 0.00 93 1012.0
20260505124058 10 297 4.8 0.0 0.00 0.00 0.00 93 1012.0
20260505123556 10 329 4.8 0.0 0.00 0.00 0.00 93 1012.0
20260505123105 10 239 6.4 0.0 0.00 0.00 0.00 93 1012.0
20260505122559 10 246 6.4 0.0 0.00 0.00 0.00 94 1012.0
20260505122056 10 285 6.4 0.0 0.00 0.00 0.00 94 1012.0
20260505121556 10 257 6.4 0.0 0.00 0.00 0.00 94 1012.0
20260505121056 10 271 6.4 0.0 0.00 0.00 0.00 94 1012.0
20260505120556 10 270 6.4 0.0 0.00 0.00 0.00 94 1012.0
20260505120057 10 265 6.4 0.0 0.00 0.00 0.00 94 1012.0
20260505115558 10 254 4.8 0.0 0.00 0.00 0.00 94 1011.9
20260505115055 10 271 6.4 0.0 0.00 0.00 0.00 94 1011.9
20260505114554 10 264 6.4 0.0 0.00 0.00 0.00 94 1011.9
20260505114059 10 251 6.4 0.0 0.00 0.00 0.00 94 1011.8
20260505113556 10 267 4.8 0.0 0.00 0.00 0.00 94 1011.8
20260505113059 10 318 4.8 0.0 0.00 0.00 0.00 94 1011.8
20260505112553 10 300 4.8 0.0 0.00 0.00 0.00 94 1011.9
20260505112053 10 300 4.8 0.0 0.00 0.00 0.00 94 1011.9
20260505111557 10 304 6.4 0.0 0.00 0.00 0.00 94 1011.9
20260505111053 10 292 6.4 0.0 0.00 0.00 0.00 93 1011.9
20260505110552 10 231 4.8 0.0 0.00 0.00 0.00 93 1011.9
20260505102046 10 296 6.4 0.0 0.00 0.00 0.00 94 1011.9
20260505101546 10 280 4.8 0.0 0.00 0.00 0.00 94 1011.9
20260505101048 10 319 3.2 0.0 0.00 0.00 0.00 94 1012.0
20260505100545 10 321 4.8 0.0 0.00 0.00 0.00 94 1012.0
20260505100050 10 332 4.8 0.0 0.00 0.00 0.00 94 1012.0
20260505095546 10 286 4.8 0.0 0.00 0.00 0.00 94 1012.2
20260505095042 10 291 4.8 0.0 0.00 0.00 0.00 94 1012.2
20260505094543 10 273 6.4 0.0 0.00 0.00 0.00 94 1012.2
20260505094042 10 274 4.8 0.0 0.00 0.00 0.00 94 1012.3
20260505093543 10 250 6.4 0.0 0.00 0.00 0.00 94 1012.3
20260505093043 10 298 6.4 0.0 0.00 0.00 0.00 94 1012.3
20260505092542 10 324 8.0 0.0 0.00 0.00 0.00 94 1012.4
20260505092040 10 311 8.0 0.0 0.00 0.00 0.00 94 1012.4
20260505091552 10 295 6.4 0.0 0.00 0.00 0.00 94 1012.4
20260505091042 11 304 6.4 0.0 0.00 0.00 0.00 94 1012.6
20260505090542 11 298 4.8 0.0 0.00 0.00 0.00 94 1012.6
20260505090051 11 304 3.2 0.0 0.00 0.00 0.00 94 1012.6
20260505085538 11 267 3.2 0.0 0.00 0.00 0.00 94 1012.6
20260505085037 11 280 3.2 0.0 0.00 0.00 0.00 94 1012.6
20260505084538 11 302 3.2 0.0 0.00 0.00 0.00 94 1012.6
20260505084036 11 308 3.2 0.0 0.00 0.00 0.00 94 1012.9
20260505083537 11 281 3.2 0.0 0.00 0.00 0.00 94 1012.9
20260505083042 11 286 3.2 0.0 0.00 0.00 0.00 94 1012.9
20260505082535 11 267 3.2 0.0 0.00 0.00 0.00 94 1012.9
20260505082035 11 291 3.2 0.0 0.00 0.00 0.00 94 1012.9
20260505081550 11 288 3.2 0.0 0.00 0.00 0.00 94 1012.9
20260505081035 11 295 3.2 0.0 0.00 0.00 0.00 94 1012.8
20260505080539 11 317 3.2 0.0 0.00 0.00 0.00 94 1012.8
20260505080042 11 288 3.2 0.0 0.00 0.00 0.00 94 1012.8
20260505075534 11 272 1.6 0.0 0.00 0.00 0.00 94 1012.9
20260505075033 11 238 1.6 0.0 0.00 0.00 0.00 94 1012.9
20260505074538 11 188 1.6 0.0 0.00 0.00 0.00 94 1012.9
20260505074034 11 188 1.6 0.0 0.00 0.00 0.00 94 1013.0
20260505073534 11 227 1.6 0.0 0.00 0.00 0.00 94 1013.0
20260505073032 11 229 3.2 0.0 0.00 0.00 0.00 94 1013.0
20260505072531 11 291 3.2 0.0 0.00 0.00 0.00 94 1013.0
20260505072031 11 306 3.2 0.0 0.00 0.00 0.00 94 1013.0
20260505071531 11 291 3.2 0.0 0.00 0.00 0.00 94 1013.0
20260505071031 11 296 3.2 0.0 0.00 0.00 0.00 94 1013.1
20260505070531 11 280 3.2 0.0 0.00 0.00 0.00 94 1013.1
20260505070031 11 297 3.2 0.0 0.00 0.00 0.03 94 1013.1
20260505065530 11 281 3.2 0.0 0.00 0.00 0.03 94 1013.1
20260505065030 11 265 3.2 0.0 0.00 0.00 0.03 94 1013.1
20260505064530 11 277 3.2 0.0 0.00 0.00 0.03 94 1013.1
20260505064029 11 284 3.2 0.0 0.00 0.00 0.03 94 1013.1
20260505063529 11 290 1.6 0.0 0.00 0.00 0.00 94 1013.1
20260505063035 11 189 0.0 0.0 0.00 0.00 0.00 94 1013.1
20260505062529 11 185 0.0 0.0 0.00 0.00 0.00 94 1013.2
20260505062029 11 171 0.0 0.0 0.00 0.00 0.00 94 1013.2
20260505061533 11 171 0.0 0.0 0.00 0.00 0.00 94 1013.2
20260505061029 11 216 0.0 0.0 0.00 0.00 0.00 94 1013.3
20260505060528 11 216 1.6 0.0 0.00 0.00 0.00 94 1013.3
20260505060030 11 158 3.2 0.0 0.00 0.00 0.00 94 1013.3
20260505055527 11 277 4.8 0.0 0.00 0.00 0.00 94 1013.3
20260505055029 11 258 4.8 0.0 0.00 0.00 0.00 94 1013.3
20260505054530 11 277 4.8 0.0 0.00 0.00 0.00 94 1013.3
20260505054027 11 285 3.2 0.0 0.00 0.00 0.00 94 1013.4
20260505053527 11 290 1.6 0.0 0.00 0.00 0.00 94 1013.4
20260505053026 11 184 1.6 0.0 0.00 0.00 0.00 94 1013.4
20260505052526 11 271 1.6 0.0 0.00 0.00 0.00 94 1013.4
20260505052027 11 292 1.6 0.0 0.00 0.00 0.00 94 1013.4
20260505051529 11 202 1.6 0.0 0.00 0.00 0.00 94 1013.4
20260505051029 11 205 1.6 0.0 0.00 0.00 0.00 94 1013.5
20260505050527 11 227 1.6 0.0 0.00 0.00 0.00 94 1013.5
20260505041525 11 201 1.6 0.0 0.00 0.00 0.00 94 1013.6
20260505041025 11 212 1.6 0.0 0.00 0.00 0.00 94 1013.7
20260505040525 11 175 1.6 0.0 0.00 0.00 0.00 94 1013.7
20260505040025 11 165 1.6 0.0 0.00 0.00 0.00 94 1013.7
20260505035523 11 174 1.6 0.0 0.00 0.00 0.00 94 1013.6
20260505035023 11 195 1.6 0.0 0.00 0.00 0.00 94 1013.6
20260505034523 11 196 3.2 0.0 0.00 0.00 0.00 94 1013.6
20260505034024 11 165 1.6 0.0 0.00 0.00 0.00 94 1013.6
20260505033526 11 192 1.6 0.0 0.00 0.00 0.00 94 1013.6
20260505033033 11 151 1.6 0.0 0.00 0.00 0.00 94 1013.6
20260505032524 11 201 3.2 0.0 0.00 0.00 0.00 94 1013.5
20260505032024 11 194 3.2 0.0 0.00 0.00 0.00 94 1013.5
20260505031523 11 178 4.8 0.0 0.00 0.00 0.00 94 1013.5
20260505031023 11 213 4.8 0.0 0.00 0.00 0.00 94 1013.3
20260505030523 11 193 4.8 0.0 0.00 0.00 0.00 94 1013.3
20260505030023 11 176 4.8 0.0 0.00 0.00 0.00 94 1013.3
20260505025527 11 184 4.8 0.0 0.00 0.00 0.00 93 1013.4
20260505025021 11 157 4.8 0.0 0.00 0.00 0.00 93 1013.4
20260505024546 11 176 6.4 0.0 0.00 0.00 0.00 93 1013.4
20260505024021 11 203 6.4 0.0 0.00 0.00 0.00 93 1013.4
20260505023521 11 219 6.4 0.0 0.00 0.00 0.00 93 1013.4
20260505023023 11 185 6.4 0.0 0.00 0.00 0.00 93 1013.4
20260505022522 11 196 6.4 0.0 0.00 0.00 0.00 93 1013.4
20260505022021 11 151 6.4 0.0 0.00 0.00 0.00 92 1013.4
20260505021541 12 205 8.0 0.0 0.00 0.00 0.00 92 1013.4
20260505021020 12 161 8.0 0.0 0.00 0.00 0.00 91 1013.5
20260505020521 12 185 6.4 0.0 0.00 0.00 0.00 91 1013.5
20260505020021 12 166 6.4 0.0 0.00 0.00 0.00 90 1013.5
20260505015523 12 167 6.4 0.0 0.00 0.00 0.00 90 1013.4
20260505015020 12 150 6.4 0.0 0.00 0.00 0.00 89 1013.4
20260505014525 12 180 6.4 0.0 0.00 0.00 0.00 88 1013.4
20260505014022 12 192 4.8 0.0 0.00 0.00 0.00 88 1013.3
20260505013519 12 199 4.8 0.0 0.00 0.00 0.00 87 1013.3
20260505013019 13 175 4.8 0.0 0.00 0.00 0.00 86 1013.3
20260505012522 13 162 4.8 0.0 0.00 0.00 0.00 85 1013.3
20260505012019 13 181 6.4 0.0 0.00 0.00 0.00 83 1013.3
20260505011526 13 214 6.4 0.0 0.00 0.00 0.00 82 1013.3
20260505011018 13 165 6.4 0.0 0.00 0.00 0.00 80 1013.3
20260505010518 14 228 4.8 0.0 0.00 0.00 0.00 79 1013.3
20260505010019 14 163 4.8 0.0 0.00 0.00 0.00 79 1013.3
20260505005518 14 190 6.4 0.0 0.00 0.00 0.00 79 1013.4
20260505005018 14 189 4.8 0.0 0.00 0.00 0.00 80 1013.4
20260505004529 14 162 4.8 0.0 0.00 0.00 0.00 80 1013.4
20260505004017 14 167 4.8 0.0 0.00 0.00 0.00 80 1013.5
20260505003517 13 192 6.4 0.0 0.00 0.00 0.00 78 1013.5
20260505003017 14 144 6.4 0.0 0.00 0.00 0.00 77 1013.5
20260505002517 14 207 6.4 0.0 0.00 0.00 0.00 78 1013.5
20260505002017 14 195 6.4 0.0 0.00 0.00 0.00 79 1013.5
20260505001517 14 207 6.4 0.0 0.00 0.00 0.00 80 1013.5
20260505001018 14 186 8.0 0.0 0.00 0.00 0.00 82 1013.5